Location: Newark
(5.5500°N, 0.2500°W)
Time: 19:08:37
(UTC+00:00)

LightSail 2 - Pass Details

Date: 23 September 2019
Orbit: 707 x 722 km, 24.0° (Epoch: 19 October)

Event Time Altitude Azimuth Distance (km) Brightness Sun altitude
Exits shadow 04:34:29 - 335° (NNW) 2,203 7.4 -19.7°
Reaches altitude 10° 04:35:02 10° 341° (NNW) 2,157 7.5 -19.5°
Maximum altitude 04:35:57 10° 351° (N) 2,126 7.5 -19.3°
Drops below altitude 10° 04:36:53 10° 2° (N) 2,156 7.7 -19.1°
Sets 04:41:42 0° 42° (NE) 3,074 9.1 -17.9°
